Weather WX

World > North America > United States > Minnesota

Wanda, Minnesota Regional Weather

Lat: 44.32N, Lon: 95.21W
Wx Zone: MNZ073
Feedback

Wanda, MN Regional Weather

Expires:201906180400;;660129
ASUS43 KMPX 180310
RWRMN 
WEATHER ROUNDUP FOR MINNESOTA
NATIONAL WEATHER SERVICE TWIN CITIES/CHANHASSEN MN
1000 PM CDT MON JUN 17 2019


NOTE: "FAIR" INDICATES FEW OR NO CLOUDS BELOW 12,000 FEET WITH NO
SIGNIFICANT WEATHER AND/OR OBSTRUCTIONS TO VISIBILITY. N/A MEANS
CURRENT SKY AND/OR WEATHER CONDITIONS ARE NOT AVAILABLE.


MNZ071>073-080-081-089-090-097-098-180400-
   Southwest Minnesota   
  
CITY           SKY/WX    TMP DP  RH WIND       PRES   REMARKS
MONTEVIDEO     CLEAR     64  46  52 N5        30.01R                  
GRANITE FALLS  PTCLDY    63  59  86 SW5       30.01R                  
CANBY          CLEAR     63  50  63 N5        30.02R                  
MARSHALL       CLEAR     61  58  90 SW6       30.01R                  
REDWOOD FALLS    N/A    N/A N/A N/A MISG      29.99S                  
OLIVIA         PTCLDY    61  54  77 W3        29.99S                  
PIPESTONE      PTCLDY    64  57  77 CALM      30.03R                  
WINDOM         CLEAR     63  57  82 CALM      30.01R                  
WORTHINGTON    CLEAR     63  55  75 N8        30.03R                  
JACKSON        CLOUDY    63  55  77 VRB3      30.01S                  
TRACY          CLOUDY    64  57  80 CALM      30.01R                  
$$

SKY/WX - Weather  TMP - Temperature  DP - Dew Point  RH - Relative Humidity
WIND - Wind Direction/Speed PRES - Barometric Pressure VSB - Visibility
WCI - Wind Chill Index E13G22 Wind - East Wind 13 mph/Gusts of 22 mph